| time (UTC) | temp C | wind direction | speed KPH | gust KPH | rain 1hr cm | rain 24hr cm | rain mn cm | humidity % | barometer mb |
| 20260505041526 | 18 | 187 | 4.8 | 4.8 | 0.00 | 0.00 | 0.00 | 67 | 1015.9 |
| 20260505040919 | 18 | 231 | 3.2 | 4.8 | 0.00 | 0.00 | 0.00 | 68 | 1015.5 |
| 20260505035138 | 18 | 157 | 3.2 | 8.0 | 0.00 | 0.00 | 0.00 | 70 | 1015.5 |
| 20260505034556 | 17 | 152 | 4.8 | 6.4 | 0.00 | 0.00 | 0.00 | 71 | 1015.5 |
| 20260505033913 | 16 | 183 | 3.2 | 3.2 | 0.00 | 0.00 | 0.00 | 76 | 1015.5 |
| 20260505033320 | 16 | 289 | 3.2 | 3.2 | 0.00 | 0.00 | 0.00 | 76 | 1015.2 |
| 20260505032719 | 16 | 265 | 3.2 | 4.8 | 0.00 | 0.00 | 0.00 | 77 | 1015.2 |
| 20260505032128 | 16 | 167 | 0.0 | 3.2 | 0.00 | 0.00 | 0.00 | 78 | 1015.2 |
| 20260505031514 | 16 | 175 | 0.0 | 1.6 | 0.00 | 0.00 | 0.00 | 77 | 1015.2 |
| 20260505030941 | 16 | 184 | 0.0 | 3.2 | 0.00 | 0.00 | 0.00 | 77 | 1015.2 |
| 20260505030344 | 17 | 158 | 0.0 | 4.8 | 0.00 | 0.00 | 0.00 | 77 | 1015.2 |
| 20260505025743 | 17 | 213 | 0.0 | 3.2 | 0.00 | 0.00 | 0.00 | 77 | 1015.2 |
| 20260505025129 | 16 | 223 | 4.8 | 6.4 | 0.00 | 0.00 | 0.00 | 76 | 1015.2 |
| 20260505024538 | 16 | 133 | 1.6 | 1.6 | 0.00 | 0.00 | 0.00 | 79 | 1015.2 |
| 20260505022123 | 16 | 166 | 0.0 | 0.0 | 0.00 | 0.00 | 0.00 | 81 | 1015.2 |
| 20260505021512 | 16 | 170 | 0.0 | 0.0 | 0.00 | 0.00 | 0.00 | 80 | 1015.2 |
| 20260505020926 | 16 | 142 | 0.0 | 0.0 | 0.00 | 0.00 | 0.00 | 79 | 1015.2 |
| 20260505020317 | 16 | 176 | 0.0 | 0.0 | 0.00 | 0.00 | 0.00 | 79 | 1015.2 |
| 20260505015154 | 16 | 177 | 0.0 | 0.0 | 0.00 | 0.00 | 0.00 | 78 | 1014.9 |
| 20260505014530 | 17 | 161 | 0.0 | 0.0 | 0.00 | 0.00 | 0.00 | 77 | 1014.9 |
| 20260505013918 | 17 | 162 | 0.0 | 3.2 | 0.00 | 0.00 | 0.00 | 76 | 1014.9 |
| 20260505013318 | 17 | 235 | 0.0 | 1.6 | 0.00 | 0.00 | 0.00 | 76 | 1014.9 |
| 20260505012711 | 17 | 161 | 0.0 | 3.2 | 0.00 | 0.00 | 0.00 | 75 | 1014.9 |
| 20260505012147 | 17 | 159 | 0.0 | 4.8 | 0.00 | 0.00 | 0.00 | 76 | 1014.9 |
| 20260505011536 | 18 | 163 | 0.0 | 3.2 | 0.00 | 0.00 | 0.00 | 74 | 1014.9 |
| 20260505010914 | 18 | 185 | 0.0 | 3.2 | 0.00 | 0.00 | 0.00 | 74 | 1014.5 |
| 20260505010331 | 18 | 255 | 3.2 | 4.8 | 0.00 | 0.00 | 0.00 | 73 | 1014.5 |
| 20260505005751 | 18 | 258 | 3.2 | 4.8 | 0.00 | 0.00 | 0.00 | 72 | 1014.9 |
| 20260505005121 | 18 | 293 | 0.0 | 0.0 | 0.00 | 0.00 | 0.00 | 71 | 1014.9 |
| 20260505004534 | 18 | 255 | 0.0 | 3.2 | 0.00 | 0.00 | 0.00 | 71 | 1014.9 |
| 20260505003929 | 19 | 274 | 3.2 | 4.8 | 0.00 | 0.00 | 0.00 | 70 | 1014.9 |
| 20260505003354 | 19 | 199 | 3.2 | 3.2 | 0.00 | 0.00 | 0.00 | 70 | 1014.5 |
| 20260505002111 | 19 | 166 | 3.2 | 4.8 | 0.00 | 0.00 | 0.00 | 69 | 1014.9 |
| 20260505001513 | 19 | 227 | 4.8 | 4.8 | 0.00 | 0.00 | 0.00 | 69 | 1014.9 |
| 20260505000916 | 19 | 174 | 0.0 | 4.8 | 0.00 | 0.00 | 0.00 | 69 | 1014.9 |
| 20260505000318 | 20 | 234 | 0.0 | 3.2 | 0.00 | 0.00 | 0.00 | 68 | 1014.9 |
| 20260504235715 | 20 | 182 | 0.0 | 3.2 | 0.00 | 0.00 | 0.00 | 69 | 1014.5 |
| 20260504234528 | 20 | 317 | 3.2 | 4.8 | 0.00 | 0.00 | 0.00 | 66 | 1014.5 |
| 20260504233933 | 21 | 259 | 0.0 | 4.8 | 0.00 | 0.00 | 0.00 | 64 | 1014.9 |
| 20260504233341 | 21 | 169 | 6.4 | 6.4 | 0.00 | 0.00 | 0.00 | 60 | 1014.9 |
| 20260504232715 | 22 | 270 | 4.8 | 4.8 | 0.00 | 0.00 | 0.00 | 61 | 1014.9 |
| 20260504232153 | 23 | 233 | 3.2 | 3.2 | 0.00 | 0.00 | 0.00 | 55 | 1014.9 |
| 20260504231519 | 23 | 207 | 1.6 | 8.0 | 0.00 | 0.00 | 0.00 | 52 | 1014.9 |
| 20260504230952 | 23 | 198 | 1.6 | 8.0 | 0.00 | 0.00 | 0.00 | 51 | 1014.9 |
| 20260504225714 | 23 | 176 | 11.3 | 17.7 | 0.00 | 0.00 | 0.00 | 50 | 1014.9 |
| 20260504225147 | 23 | 225 | 8.0 | 8.0 | 0.00 | 0.00 | 0.00 | 53 | 1014.9 |
| 20260504224511 | 23 | 320 | 4.8 | 11.3 | 0.00 | 0.00 | 0.00 | 53 | 1014.9 |
| 20260504223935 | 24 | 197 | 0.0 | 11.3 | 0.00 | 0.00 | 0.00 | 50 | 1014.9 |
| 20260504223316 | 23 | 189 | 6.4 | 14.5 | 0.00 | 0.00 | 0.00 | 47 | 1014.9 |
| 20260504222753 | 24 | 325 | 6.4 | 9.7 | 0.00 | 0.00 | 0.00 | 55 | 1014.9 |
| 20260504222112 | 24 | 170 | 4.8 | 19.3 | 0.00 | 0.00 | 0.00 | 48 | 1014.9 |
| 20260504221522 | 25 | 149 | 8.0 | 16.1 | 0.00 | 0.00 | 0.00 | 46 | 1015.2 |
| 20260504220927 | 25 | 175 | 6.4 | 11.3 | 0.00 | 0.00 | 0.00 | 47 | 1015.2 |
| 20260504220316 | 25 | 198 | 1.6 | 9.7 | 0.00 | 0.00 | 0.00 | 48 | 1015.2 |
| 20260504215123 | 25 | 291 | 4.8 | 4.8 | 0.00 | 0.00 | 0.00 | 59 | 1015.2 |
| 20260504214552 | 25 | 247 | 9.7 | 12.9 | 0.00 | 0.00 | 0.00 | 49 | 1015.2 |
| 20260504213951 | 25 | 188 | 4.8 | 9.7 | 0.00 | 0.00 | 0.00 | 50 | 1015.2 |
| 20260504211527 | 25 | 203 | 12.9 | 14.5 | 0.00 | 0.00 | 0.00 | 47 | 1015.2 |
| 20260504210950 | 25 | 168 | 8.0 | 16.1 | 0.00 | 0.00 | 0.00 | 49 | 1015.2 |
| 20260504210330 | 25 | 220 | 8.0 | 12.9 | 0.00 | 0.00 | 0.00 | 48 | 1015.2 |
| 20260504205734 | 25 | 175 | 9.7 | 14.5 | 0.00 | 0.00 | 0.00 | 48 | 1015.5 |
| 20260504205140 | 25 | 246 | 9.7 | 12.9 | 0.00 | 0.00 | 0.00 | 48 | 1015.5 |
| 20260504204542 | 26 | 175 | 8.0 | 14.5 | 0.00 | 0.00 | 0.00 | 48 | 1015.5 |
| 20260504203931 | 25 | 219 | 16.1 | 19.3 | 0.00 | 0.00 | 0.00 | 48 | 1015.5 |
| 20260504202734 | 24 | 231 | 8.0 | 12.9 | 0.00 | 0.00 | 0.00 | 50 | 1015.5 |
| 20260504202114 | 25 | 201 | 4.8 | 4.8 | 0.00 | 0.00 | 0.00 | 50 | 1015.9 |
| 20260504201541 | 24 | 144 | 12.9 | 22.5 | 0.00 | 0.00 | 0.00 | 53 | 1015.9 |
| 20260504200320 | 25 | 167 | 9.7 | 16.1 | 0.00 | 0.00 | 0.00 | 54 | 1016.2 |
| 20260504195752 | 24 | 206 | 11.3 | 11.3 | 0.00 | 0.00 | 0.00 | 58 | 1016.2 |
| 20260504195124 | 23 | 201 | 8.0 | 8.0 | 0.00 | 0.00 | 0.00 | 57 | 1016.2 |
| 20260504194552 | 23 | 186 | 8.0 | 14.5 | 0.00 | 0.00 | 0.00 | 57 | 1016.5 |
| 20260504193936 | 23 | 169 | 6.4 | 16.1 | 0.00 | 0.00 | 0.00 | 57 | 1016.2 |
| 20260504193337 | 23 | 173 | 11.3 | 14.5 | 0.00 | 0.00 | 0.00 | 59 | 1016.5 |
| 20260504192722 | 23 | 218 | 11.3 | 11.3 | 0.00 | 0.00 | 0.00 | 61 | 1016.5 |
| 20260504192139 | 23 | 162 | 3.2 | 4.8 | 0.00 | 0.00 | 0.00 | 59 | 1016.9 |
| 20260504191533 | 23 | 159 | 3.2 | 9.7 | 0.00 | 0.00 | 0.00 | 60 | 1016.9 |
| 20260504190949 | 22 | 272 | 4.8 | 9.7 | 0.00 | 0.00 | 0.00 | 59 | 1016.9 |
| 20260504185733 | 22 | 243 | 6.4 | 9.7 | 0.00 | 0.00 | 0.00 | 63 | 1017.2 |
| 20260504184535 | 21 | 222 | 4.8 | 16.1 | 0.00 | 0.00 | 0.00 | 65 | 1017.2 |
| 20260504183943 | 20 | 243 | 6.4 | 12.9 | 0.00 | 0.00 | 0.00 | 64 | 1017.2 |
| 20260504183329 | 20 | 181 | 8.0 | 16.1 | 0.00 | 0.00 | 0.00 | 63 | 1017.2 |
| 20260504182741 | 20 | 171 | 6.4 | 12.9 | 0.00 | 0.00 | 0.00 | 61 | 1017.6 |
| 20260504182142 | 20 | 281 | 12.9 | 16.1 | 0.00 | 0.00 | 0.00 | 62 | 1017.6 |
| 20260504181512 | 20 | 199 | 11.3 | 12.9 | 0.00 | 0.00 | 0.00 | 63 | 1017.9 |
| 20260504180923 | 19 | 151 | 9.7 | 9.7 | 0.00 | 0.00 | 0.00 | 65 | 1018.2 |
| 20260504180320 | 18 | 202 | 4.8 | 8.0 | 0.00 | 0.00 | 0.00 | 67 | 1018.2 |
| 20260504175748 | 18 | 129 | 9.7 | 11.3 | 0.00 | 0.00 | 0.00 | 67 | 1018.2 |
| 20260504174534 | 18 | 190 | 4.8 | 14.5 | 0.00 | 0.00 | 0.00 | 62 | 1018.6 |
| 20260504173931 | 19 | 264 | 9.7 | 11.3 | 0.00 | 0.00 | 0.00 | 60 | 1018.6 |
| 20260504172713 | 20 | 243 | 9.7 | 14.5 | 0.00 | 0.00 | 0.00 | 58 | 1017.9 |
| 20260504172134 | 21 | 172 | 9.7 | 12.9 | 0.00 | 0.00 | 0.00 | 58 | 1017.9 |
| 20260504171554 | 20 | 185 | 8.0 | 22.5 | 0.00 | 0.00 | 0.00 | 58 | 1017.9 |
| 20260504170919 | 20 | 164 | 12.9 | 16.1 | 0.00 | 0.00 | 0.00 | 58 | 1017.9 |
| 20260504170335 | 21 | 246 | 11.3 | 12.9 | 0.00 | 0.00 | 0.00 | 57 | 1017.6 |
| 20260504160347 | 18 | 260 | 9.7 | 14.5 | 0.00 | 0.00 | 0.00 | 67 | 1018.2 |
| 20260504141236 | 13 | 164 | 6.4 | 11.3 | 0.00 | 0.00 | 0.00 | 81 | 1019.9 |
| 20260504140653 | 13 | 111 | 8.0 | 14.5 | 0.00 | 0.00 | 0.00 | 81 | 1020.3 |
| 20260504130633 | 12 | 219 | 9.7 | 16.1 | 0.00 | 0.00 | 0.00 | 84 | 1020.6 |
| 20260504110627 | 11 | 192 | 4.8 | 6.4 | 0.00 | 0.00 | 0.00 | 70 | 1019.6 |
| 20260504081814 | 8 | 230 | 0.0 | 0.0 | 0.00 | 0.00 | 0.00 | 83 | 1020.3 |
| 20260504081216 | 8 | 156 | 0.0 | 0.0 | 0.00 | 0.00 | 0.00 | 83 | 1020.3 |
| 20260504080626 | 8 | 166 | 0.0 | 0.0 | 0.00 | 0.00 | 0.00 | 83 | 1020.3 |
| 20260504045417 | 11 | 172 | 1.6 | 4.8 | 0.00 | 0.00 | 0.00 | 71 | 1021.6 |
| 20260504044831 | 11 | 235 | 4.8 | 8.0 | 0.00 | 0.00 | 0.00 | 73 | 1021.6 |
| 20260504044221 | 11 | 168 | 3.2 | 6.4 | 0.00 | 0.00 | 0.00 | 74 | 1021.6 |
| 20260504043642 | 10 | 145 | 3.2 | 6.4 | 0.00 | 0.00 | 0.00 | 75 | 1021.6 |
| 20260504043048 | 10 | 168 | 0.0 | 0.0 | 0.00 | 0.00 | 0.00 | 76 | 1022.0 |
| 20260504042431 | 10 | 181 | 0.0 | 0.0 | 0.00 | 0.00 | 0.00 | 77 | 1022.0 |